COSMOS 2251 DEB, 37484

Orbit data source: Space-Track

COSMOS 2251 DEB, 37484 is space debris in LEO originally from a launch on Wed, 16 Jun 1993 UTC launched from the Plesetsk Missile And Space Complex (PKMTR). The debris from Iridium 33, an American commercial communications satellite, has been tracked extensively since its accidental collision with the defunct Russian satellite Cosmos 2251 in 2009. This event, occurring at high speed in low Earth orbit (LEO), generated thousands of pieces of space debris, significantly increasing the risk of further collisions. The Iridium 33 debris cloud has impacted space traffic management and orbital debris mitigation strategies, making it a subject of ongoing study in space situational awareness.

Loading next visibility...
Identifier
37484, 1993-036BLM
Orbit
LEO
Country
Flag of CISCIS
Related business
Manufacturer
Unknown
Mission
Spacecraft
Bus & Motor
Unknown
Mass
Unknown
Launch date (UTC)
1993-06-16 (33 years ago)
Launch vehicle
Unknown
Launch site
Plesetsk Missile And Space Complex (PKMTR)
Object type
Payload
Rocket body
Debris
Shape & HBR
Unknown shape, 0.1 m
Radar Cross Section
Small (<0.1 m²)

Expand to show TLE details & history
Last TLE update: 3 days ago

TLE from 3 days ago
0 COSMOS 2251 DEB
1 37484U 93036BLM 26206.53777870  .00002123  00000-0  63866-3 0  9997
2 37484  73.8223 146.0107 0037440 140.4035 337.4265 14.42860465686209
Epoch: 2026-07-25T12:54Z
TLE epoch observation values (Epoch: 2026-07-25T12:54:24.079Z)
Latitude
58.38608°
Longitude
161.20683°
Altitude
733.927 km
Speed
7.507 km/s
True Right ascension
19h 52m 13s
True Declination
58° 13' 55"
Sunlit
Object was in daylight at epoch
Visualization orbit readout
Latitude
Unknown
Longitude
Unknown
Altitude
Unknown
Speed
Unknown
Apparent Right ascension
Unknown
Apparent Declination
Unknown
Sunlit
N/A
Visualization observer readout
Local Sidereal Time
07:33:25
Azimuth
Unknown
Elevation
Unknown
Doppler factor
Unknown
Orbital elements
Apogee altitude
773.373 km
Perigee altitude
720.022 km
Semi-major axis
7,124.835 km
Eccentricity
0.00374
Inclination
73.8223°
RAAN
146.0107°
Arg. of periapsis
140.4035°
True anomaly
337.26109°
Mean anomaly
337.4265°
Eccentric anomaly
337.34387°
Mean motion
3.60895 °/min
Orbital period
99.75 mins
BSTAR
0.00063866
Loading maneuver chart data...
Computing Atmospheric mass density...

Documentation

Showing up to 5 results
|